Location: Eimen
(51.8766°N, 9.7806°E)
Time: 12:08:20
(UTC+00:00)

EXPRESS MD2 - Pass Details

Date: 23 May 2024
Orbit: 262 x 3331 km, 49.9° (Epoch: 18 June)

Event Time Altitude Azimuth Distance (km) Brightness Sun altitude
Exits shadow 01:25:01 18° 177° (S) 1,030 4.2 -12.3°
Maximum altitude 01:26:12 23° 142° (SE) 978 4.4 -12.2°
Drops below altitude 10° 01:29:30 10° 89° (E) 1,956 6.6 -12.0°
Sets 01:32:57 0° 77° (ENE) 3,366 8.1 -11.7°
